[TLELIST] Archives

 

[list_settings.list_name] Current TLEs

April 12th 2022 PST

HST 1 20580U 90037B 22101.83103066 .00002573 00000-0 14239-3 0 9996 2 20580 28.4694 250.1569 0002910 42.7623 76.8252 15.10266260556133 ISS (ZARYA) 1 25544U 98067A 22102.31652132 .00009189 00000-0 16866-3 0 9997 2 25544 51.6440 302.8405 0004443 15.4871 157.6460 15.50020871334968 CXO 1 25867U 99040B 22104.58164641 .00001109 00000-0 00000-0 0 9995 2 25867 47.1588 239.6146 8747473 231.7441 0.0588 0.37814264 11554 ____________________________________________________________________ These 2-Line ...Continue Reading

[list_settings.list_name] Current TLEs

April 11th 2022 PST

HST 1 20580U 90037B 22100.83915378 .00002828 00000-0 15759-3 0 9993 2 20580 28.4694 256.7265 0002874 32.7247 83.3766 15.10261104555985 ISS (ZARYA) 1 25544U 98067A 22101.34838098 .00010998 00000-0 20034-3 0 9998 2 25544 51.6440 307.6369 0004493 11.0035 156.2993 15.50005149334810 CXO 1 25867U 99040B 22101.94074325 .00001101 00000-0 00000+0 0 9992 2 25867 47.2611 239.8396 8745653 231.6112 0.6119 0.37810188 22709 ____________________________________________________________________ These 2-Line ...Continue Reading

[list_settings.list_name] Current TLEs

April 10th 2022 PST

HST 1 20580U 90037B 22099.91723649 .00003000 00000-0 16787-3 0 9992 2 20580 28.4695 262.8324 0002828 23.2070 110.5490 15.10256073555849 ISS (ZARYA) 1 25544U 98067A 22100.25150948 .00010405 00000-0 19017-3 0 9990 2 25544 51.6448 313.0706 0004481 7.0055 155.7354 15.49977860334640 CXO 1 25867U 99040B 22101.94074325 .00001101 00000-0 00000+0 0 9992 2 25867 47.2611 239.8396 8745653 231.6112 0.6119 0.37810188 22709 ____________________________________________________________________ These 2-Line ...Continue Reading

[list_settings.list_name] Current TLEs

April 9th 2022 PST

HST 1 20580U 90037B 22098.85537181 .00002986 00000-0 16707-3 0 9992 2 20580 28.4697 269.8657 0002776 12.2824 96.7555 15.10249667555684 ISS (ZARYA) 1 25544U 98067A 22099.35028832 .00009155 00000-0 16845-3 0 9990 2 25544 51.6443 317.5339 0004805 2.7429 167.9401 15.49951922334507 CXO 1 25867U 99040B 22099.29195939 .00001001 00000-0 00000-0 0 9991 2 25867 47.3328 240.0137 8742490 231.5110 0.0942 0.37805595 11549 ____________________________________________________________________ These 2-Line ...Continue Reading

[list_settings.list_name] Current TLEs

April 8th 2022 PST

HST 1 20580U 90037B 22098.20466271 .00003252 00000-0 18297-3 0 9995 2 20580 28.4699 274.1756 0002762 4.9705 159.2134 15.10246485555858 ISS (ZARYA) 1 25544U 98067A 22098.38359667 .00010137 00000-0 18575-3 0 9999 2 25544 51.6452 322.3227 0004568 0.1883 172.9985 15.49936671334359 CXO 1 25867U 99040B 22099.29195939 .00001001 00000-0 00000-0 0 9991 2 25867 47.3328 240.0137 8742490 231.5110 0.0942 0.37805595 11549 ____________________________________________________________________ These 2-Line ...Continue Reading

[list_settings.list_name] Current TLEs

April 7th 2022 PST

HST 1 20580U 90037B 22096.87775983 .00003364 00000-0 18965-3 0 9995 2 20580 28.4699 282.9633 0002594 351.2903 144.3830 15.10238734555384 ISS (ZARYA) 1 25544U 98067A 22097.41675223 .00011614 00000-0 21172-3 0 9999 2 25544 51.6456 327.1116 0004589 357.5992 177.3054 15.49922280334207 CXO 1 25867U 99040B 22099.29195939 .00001001 00000-0 00000-0 0 9991 2 25867 47.3328 240.0137 8742490 231.5110 0.0942 0.37805595 11549 ____________________________________________________________________ These 2-Line ...Continue Reading

[list_settings.list_name] Current TLEs

April 6th 2022 PST

HST 1 20580U 90037B 22095.88578536 .00003267 00000-0 18391-3 0 9995 2 20580 28.4701 289.5331 0002536 339.0962 152.6642 15.10231994555239 ISS (ZARYA) 1 25544U 98067A 22096.41533565 .00012936 00000-0 23502-3 0 9997 2 25544 51.6452 332.0719 0004408 352.8646 350.7880 15.49903926334043 CXO 1 25867U 99040B 22096.64747584 .00000869 00000-0 00000-0 0 9997 2 25867 47.3962 240.1719 8739140 231.4205 0.1431 0.37806896 11530 ____________________________________________________________________ These 2-Line ...Continue Reading

[list_settings.list_name] Current TLEs

April 5th 2022 PST

HST 1 20580U 90037B 22094.89394751 .00003297 00000-0 18572-3 0 9994 2 20580 28.4702 296.1017 0002465 328.1418 160.4756 15.10226103555083 ISS (ZARYA) 1 25544U 98067A 22095.41758561 .00013219 00000-0 24019-3 0 9990 2 25544 51.6458 337.0156 0004468 348.8045 184.1208 15.49878331333899 CXO 1 25867U 99040B 22096.64747584 .00000869 00000-0 00000-0 0 9997 2 25867 47.3962 240.1719 8739140 231.4205 0.1431 0.37806896 11530 ____________________________________________________________________ These 2-Line ...Continue Reading

[list_settings.list_name] Current TLEs

April 4th 2022 PST

HST 1 20580U 90037B 22094.03549328 .00003586 00000-0 20300-3 0 9995 2 20580 28.4703 301.7868 0002436 318.3942 173.7162 15.10220608555220 ISS (ZARYA) 1 25544U 98067A 22094.25027837 .00013190 00000-0 23996-3 0 9997 2 25544 51.6453 342.7980 0004411 344.8694 150.7590 15.49846461333719 CXO 1 25867U 99040B 22096.64599589 .00000869 00000-0 00000-0 0 9997 2 25867 47.3963 240.1720 8739139 231.4204 359.9416 0.37806926 11521 ____________________________________________________________________ These 2-Line ...Continue Reading

[list_settings.list_name] Current TLEs

April 3rd 2022 PST

HST 1 20580U 90037B 22092.89190610 .00003870 00000-0 22002-3 0 9990 2 20580 28.4705 309.3609 0002421 305.4164 76.9280 15.10212732554780 ISS (ZARYA) 1 25544U 98067A 22093.41703108 .00018725 00000-0 33722-3 0 9993 2 25544 51.6447 346.9244 0004469 341.1536 182.3871 15.49830874333588 CXO 1 25867U 99040B 22094.00360342 .00000767 00000-0 00000+0 0 9994 2 25867 47.4681 240.3393 8734918 231.3244 0.2666 0.37806365 22678 ____________________________________________________________________ These 2-Line ...Continue Reading
  • This mailing list is a public mailing list - anyone may join or leave, at any time.
  • This mailing list is announce-only.

International Space Station (ISS) / Hubble Space Telescope (HST) / Chandra X-Ray Observatory Orbital Data via EMAIL

Privacy Policy:

Private list